Terminal Aerodrome Forecast
Issued by NWS

Home | Current Version | Previous Version | Text Only | Print | Product List | Glossary On
Versions: 1 2 3 4 5 6 7 8 9 10 11 12 13
000
FTUS46 KMFR 212300
TAFLMT
TAF
KLMT 212339Z 2200/2224 32012G20KT P6SM SKC
     FM220400 33004KT P6SM SKC
     FM222200 32010G18KT P6SM SKC=

USA.gov is the U.S. government's official web portal to all federal, state and local government web resources and services.